Terug naar catalogus

STARLINK-32812

ActiefCommunicatieVLEO
NORAD 63038·PAYLOAD·🇺🇸 United States

Gelanceerd Feb 18, 2025 vanaf Cape Canaveral Space Force Station

Loading…

Volgende Passages (komende 24 uur)

TLE

VersSource: CelesTrak SupGP

Epoch: Sep 15, 2026, 02:38 UTC

1 63038C 25034K   26258.11020833 -.00000574  00000+0 -18462-4 0  2585
2 63038  53.1573  98.0283 0001234  87.1385 198.7022 15.31694349    13

Volg STARLINK-32812 in realtime met AllMySat

Download on the App Store